Location: Luz Observatory
(34.5000°N, 117.2833°W)
Time: 15:55:42
(UTC-07:00)

Hubble Space Telescope - Visible Passes

Search period start: 03 May 2015 00:00
Search period end: 13 May 2015 00:00
Orbit: 542 x 546 km, 28.5° (Epoch: 03 May)

Date Brightness Start Highest point End Pass type
(mag) Time Alt. Az. Time Alt. Az. Time Alt. Az.
03 May 1.8 20:24:13 10° SW 20:27:52 30° S 20:30:25 16° ESE visible
03 May 3.2 22:05:03 10° WSW 22:05:54 15° WSW 22:05:54 15° WSW visible
04 May 1.7 20:15:30 10° WSW 20:19:15 33° S 20:22:28 13° ESE visible
04 May 2.9 21:56:29 10° WSW 21:57:56 19° WSW 21:57:56 19° WSW visible
05 May 1.6 20:06:49 10° WSW 20:10:37 35° S 20:14:25 10° ESE visible
05 May 2.6 21:47:56 10° WSW 21:49:53 22° SW 21:49:53 22° SW visible
06 May 1.6 19:58:10 10° WSW 20:01:59 35° S 20:05:49 10° ESE visible
06 May 2.4 21:39:24 10° WSW 21:41:47 23° SW 21:41:47 23° SW visible
07 May 2.4 21:30:56 10° WSW 21:33:38 23° SSW 21:33:38 23° SSW visible
08 May 2.5 21:22:30 10° WSW 21:25:28 20° SSW 21:25:28 20° SSW visible
09 May 2.6 21:14:12 10° WSW 21:16:58 17° SSW 21:17:18 17° SSW visible
10 May 2.9 21:06:03 10° SW 21:08:16 14° SSW 21:09:09 13° S visible
11 May 3.2 20:58:22 10° SW 20:59:34 11° SSW 21:00:39 10° S visible
